Printer-friendly version

IAU Minor Planet Center

Minor Planet Center

MPEC 2009-L47 : 2009 LQ1

The following Minor Planet Electronic Circular may be linked-to from your own Web pages, but must not otherwise be redistributed electronically.


Read MPEC 2009-L46 Read MPEC 2009-M01


M.P.E.C. 2009-L47                                Issued 2009 June 15, 12:37 UT

     The Minor Planet Electronic Circulars contain information on unusual
         minor planets and routine data on comets.  They are published
   on behalf of Commission 20 of the International Astronomical Union by the
          Minor Planet Center, Smithsonian Astrophysical Observatory,
                          Cambridge, MA 02138, U.S.A.

             Prepared using the Tamkin Foundation Computer Network

                              MPC@CFA.HARVARD.EDU
          URL http://www.cfa.harvard.edu/iau/mpc.html  ISSN 1523-6714

                                   2009 LQ1

Observations:
     K09L01Q* C2009 06 14.20093 13 57 17.92 -08 00 00.8          20.0 V EL047703
     K09L01Q  C2009 06 14.20571 13 57 18.90 -08 00 08.4          19.8 V EL047703
     K09L01Q  C2009 06 14.21060 13 57 19.54 -08 00 16.3          20.1 V EL047703
     K09L01Q  C2009 06 14.21540 13 57 20.41 -08 00 25.5          20.4 V EL047703
     K09L01Q  C2009 06 14.24419 13 57 25.46 -08 01 11.7                 EL047703
     K09L01Q  C2009 06 14.25009 13 57 26.75 -08 01 19.5          20.0 V EL047703
     K09L01Q  C2009 06 14.25588 13 57 27.76 -08 01 29.4          19.4 V EL047703
     K09L01Q  C2009 06 14.26170 13 57 28.81 -08 01 38.9          20.2 V EL047703
     K09L01Q  C2009 06 14.27110 13 57 30.47 -08 01 52.5          19.7 V EL047703
     K09L01Q  C2009 06 14.27736 13 57 31.69 -08 02 02.8          19.9 V EL047703
     K09L01Q  C2009 06 14.28376 13 57 32.73 -08 02 13.2          20.0 V EL047703
     K09L01Q  C2009 06 14.29008 13 57 34.00 -08 02 23.6          19.6 V EL047703
     K09L01Q  C2009 06 15.22697 14 00 40.53 -08 27 27.3          20.3 V EL047G96
     K09L01Q  C2009 06 15.23157 14 00 41.40 -08 27 35.1          20.3 V EL047G96
     K09L01Q  C2009 06 15.23609 14 00 42.19 -08 27 42.0          20.2 V EL047G96
     K09L01Q  C2009 06 15.24083 14 00 43.05 -08 27 49.4          20.5 V EL047G96

Observer details:
703 Catalina Sky Survey.  Observer R. E. Hill.  Measurers E. C. Beshore,
    A. Boattini, G. J. Garradd, A. R. Gibbs, A. D. Grauer, R. E. Hill,
    R. A. Kowalski, S. M. Larson, R. H. McNaught.  0.68-m Schmidt + CCD.
G96 Mt. Lemmon Survey.  Observer R. A. Kowalski.  Measurers E. C. Beshore,
    A. Boattini, G. J. Garradd, A. R. Gibbs, A. D. Grauer, R. E. Hill,
    R. A. Kowalski, S. M. Larson, R. H. McNaught.  1.5-m reflector + CCD.

Orbital elements:
2009 LQ1                                                 Earth MOID = 0.0622 AU
Epoch 2009 May 29.0 TT = JDT 2454980.5                  MPC
M  29.28005              (2000.0)            P               Q
n   0.74134018     Peri.   95.67522     -0.90063779     +0.43431505
a   1.2090874      Node   110.06724     -0.40472671     -0.82580684
e   0.1191754      Incl.    0.90894     -0.15826519     -0.35974088
P   1.33           H   22.2           G   0.15
From 16 observations 2009 June 14-15.

Ephemeris:
2009 LQ1                 a,e,i = 1.21, 0.12, 1                   q = 1.0650
Date    TT    R. A. (2000) Decl.     Delta      r     Elong.  Phase     V
2009 06 08    13 36.61   -05 05.3    0.134    1.101   126.9    47.5    19.8
2009 06 18    14 09.79   -09 39.0    0.154    1.115   126.7    46.9    20.2
2009 06 28    14 42.05   -13 34.2    0.179    1.131   126.0    46.7    20.5
2009 07 08    15 13.55   -16 49.0    0.209    1.148   124.7    46.7    20.9
2009 07 18    15 44.23   -19 24.8    0.244    1.167   122.8    47.1    21.2
2009 07 28    16 14.40   -21 25.7    0.284    1.185   120.6    47.5    21.6
2009 08 07    16 44.26   -22 54.9    0.328    1.204   118.1    48.0    22.0

Timothy B. Spahr             (C) Copyright 2009 MPC           M.P.E.C. 2009-L47

Read MPEC 2009-L46 Read MPEC 2009-M01


Our Web policy. Index to the CBAT/MPC/ICQ pages.


Valid HTML 4.01!